This is the latest recevied weather packets stored in our database for station/object W4BOD. If no packets are shown the sender has not sent any weather packets the latest 1 day(s).
| Time | Temp. | Humidity | Pressure | Rain* | Wind** | Luminosity | Snow |
|---|---|---|---|---|---|---|---|
| 1778013424 | 25.56° C | 52% | 1008.8 hPa | 0 mm | 2.24 m/s, 255° | 590 W/m² | - |
| 1778013120 | 25° C | 52% | 1008.8 hPa | 0 mm | 0.89 m/s, 247° | 581 W/m² | - |
| 1778012816 | 25° C | 54% | 1009 hPa | 0 mm | 0.45 m/s, 307° | 632 W/m² | - |
| 1778012512 | 25° C | 52% | 1009 hPa | 0 mm | 2.24 m/s, 245° | 720 W/m² | - |
| 1778012209 | 25° C | 51% | 1009.2 hPa | 0 mm | 6.26 m/s, 262° | 708 W/m² | - |
| 1778011907 | 24.44° C | 53% | 1009.3 hPa | 0 mm | 1.79 m/s, 153° | 785 W/m² | - |
| 1778011605 | 24.44° C | 54% | 1009.5 hPa | 0 mm | 2.24 m/s, 206° | 339 W/m² | - |
| 1778011301 | 25° C | 54% | 1009.4 hPa | 0 mm | 2.24 m/s, 270° | 346 W/m² | - |
| 1778010997 | 24.44° C | 53% | 1009.4 hPa | 0 mm | 4.92 m/s, 241° | 803 W/m² | - |
| 1778010695 | 24.44° C | 53% | 1009.5 hPa | 0 mm | 2.24 m/s, 81° | 818 W/m² | - |
| 1778010392 | 23.89° C | 55% | 1009.8 hPa | 0 mm | 0.45 m/s, 163° | 809 W/m² | - |
| 1778010088 | 23.89° C | 58% | 1009.5 hPa | 0 mm | 1.34 m/s, 198° | 881 W/m² | - |
| 1778009785 | 23.89° C | 56% | 1009.8 hPa | 0 mm | 2.24 m/s, 132° | 416 W/m² | - |
| 1778009482 | 23.89° C | 53% | 1010.4 hPa | 0 mm | 3.58 m/s, 189° | 1075 W/m² | - |
| 1778009180 | 23.33° C | 54% | 1010.3 hPa | 0 mm | 2.24 m/s, 297° | 441 W/m² | - |
| 1778008877 | 23.33° C | 53% | 1010.3 hPa | 0 mm | 6.26 m/s, 206° | 464 W/m² | - |
| 1778008576 | 23.89° C | 53% | 1010.7 hPa | 0 mm | 2.24 m/s, 140° | 816 W/m² | - |
| 1778008273 | 23.89° C | 55% | 1010.4 hPa | 0 mm | 2.24 m/s, 227° | 645 W/m² | - |
| 1778007969 | 23.89° C | 53% | 1010.6 hPa | 0 mm | 2.68 m/s, 217° | 950 W/m² | - |
| 1778007664 | 23.89° C | 57% | 1010.8 hPa | 0 mm | 4.02 m/s, 263° | 639 W/m² | - |
| 1778007361 | 24.44° C | 55% | 1010.4 hPa | 0 mm | 1.34 m/s, 232° | 939 W/m² | - |
| 1778007057 | 23.89° C | 56% | 1010.6 hPa | 0 mm | 1.79 m/s, 145° | 921 W/m² | - |
| 1778006754 | 23.89° C | 55% | 1010.5 hPa | 0 mm | 3.13 m/s, 215° | 609 W/m² | - |
| 1778006451 | 23.89° C | 58% | 1010.5 hPa | 0 mm | 3.58 m/s, 235° | 864 W/m² | - |
| 1778006147 | 23.33° C | 59% | 1010.4 hPa | 0 mm | 3.13 m/s, 233° | 1011 W/m² | - |
* Rain latest hour (hover to see other rain measurements)
** Current wind speed in m/s (hover to see current wind gust speed)